Location: Gro� Glienicke
(52.4675°N, 13.1079°E)
Time: 08:31:58
(UTC+00:00)

ATLAS 2AS CENTAUR R/B - Pass Details

Date: 06 July 2020
Orbit: 930 x 1282 km, 63.7° (Epoch: 19 July)

Event Time Altitude Azimuth Distance (km) Brightness Sun altitude
Rises 21:46:39 0° 314° (NW) 4,198 7.1 -12.7°
Reaches altitude 10° 21:49:32 10° 312° (NW) 3,193 6.2 -12.8°
Maximum altitude 21:57:05 64° 234° (SW) 1,276 3.0 -13.2°
Enters shadow 22:02:31 18° 157° (SSE) 2,430 3.9 -13.4°
